Location: Bacharowice
(49.9333°N, 19.5833°E)
Time: 03:24:36
(UTC+00:00)

BREEZE-M DEB (TANK) - Pass Details

Date: 11 May 2021
Orbit: 284 x 18729 km, 52.5° (Epoch: 21 June)

Event Time Altitude Azimuth Distance (km) Brightness Sun altitude
Rises 21:49:34 0° 279° (W) 4,885 7.9 -21.1°
Reaches altitude 10° 21:54:14 10° 283° (WNW) 2,575 6.5 -21.3°
Maximum altitude 21:58:49 57° 4° (N) 497 2.8 -21.4°
Enters shadow 21:59:02 55° 29° (NNE) 495 2.8 -21.4°
